Location: ???????
(55.4362°N, 38.1183°E)
Time: 18:21:13
(UTC+00:00)

Cosmos 2221 - Pass Details

Date: 17 June 2021
Orbit: 591 x 616 km, 82.5° (Epoch: 29 July)

Event Time Altitude Azimuth Distance (km) Brightness Sun altitude
Rises 22:15:37 0° 350° (N) 2,876 7.5 -10.5°
Reaches altitude 10° 22:17:55 10° 356° (N) 1,964 6.5 -10.5°
Maximum altitude 22:22:09 51° 73° (ENE) 765 3.2 -10.3°
Drops below altitude 10° 22:26:19 10° 149° (SSE) 1,934 4.7 -10.2°
Enters shadow 22:27:04 - 152° (SSE) 2,232 5.0 -10.2°
